Hourly Weather Otrebowa

Today, 31 July, Saturday

Time Temperature Precipitation Wind Pressure Humidity
00:00 +19°C° 0 mm 1 mps 705 mmHg 81%
01:00 +18°C° 0 mm 1 mps 705 mmHg 82%
02:00 +18°C° 0 mm 1 mps 704 mmHg 81%
03:00 +18°C° 0 mm 1 mps 704 mmHg 80%
04:00 +18°C° 0 mm 1 mps 704 mmHg 80%
05:00 +20°C° 0 mm 1 mps 704 mmHg 75%
06:00 +21°C° 0 mm 1 mps 704 mmHg 70%
07:00 +23°C° 0 mm 1 mps 704 mmHg 65%
08:00 +24°C° 0 mm 1 mps 704 mmHg 62%
09:00 +25°C° 0 mm 1 mps 704 mmHg 59%
10:00 +26°C° 0 mm 1 mps 704 mmHg 56%
11:00 +24°C° 4.3 mm 1 mps 704 mmHg 70%
12:00 +21°C° 4.3 mm 1 mps 704 mmHg 83%
13:00 +19°C° 4.3 mm 1 mps 704 mmHg 97%
14:00 +19°C° 2.5 mm 1 mps 705 mmHg 95%
15:00 +19°C° 2.5 mm 1 mps 705 mmHg 94%
16:00 +19°C° 2.5 mm 1 mps 705 mmHg 93%
17:00 +18°C° 0 mm 1 mps 705 mmHg 93%
18:00 +18°C° 0 mm 1 mps 705 mmHg 93%
19:00 +18°C° 0 mm 1 mps 705 mmHg 93%
20:00 +18°C° 0 mm 1 mps 705 mmHg 93%
21:00 +16°C° 0 mm 1 mps 705 mmHg 93%
22:00 +16°C° 0 mm 1 mps 705 mmHg 93%
23:00 +16°C° 0 mm 1 mps 705 mmHg 92%

Tomorrow, 1 August, Sunday

Time Temperature Precipitation Wind Pressure Humidity
00:00 +15°C° 0 mm 1 mps 705 mmHg 91%
01:00 +15°C° 0 mm 1 mps 705 mmHg 90%
02:00 +15°C° 0 mm 1 mps 705 mmHg 89%
03:00 +15°C° 0 mm 1 mps 705 mmHg 89%
04:00 +15°C° 0 mm 1 mps 704 mmHg 88%
05:00 +18°C° 0 mm 1 mps 704 mmHg 84%
06:00 +19°C° 0 mm 1 mps 704 mmHg 81%
07:00 +20°C° 0 mm 1 mps 705 mmHg 77%
08:00 +21°C° 0.1 mm 1 mps 704 mmHg 73%
09:00 +23°C° 0.1 mm 1 mps 704 mmHg 68%
10:00 +24°C° 0.1 mm 2 mps 704 mmHg 64%
11:00 +25°C° 0 mm 2 mps 704 mmHg 60%
12:00 +27°C° 0 mm 3 mps 703 mmHg 56%
13:00 +28°C° 0 mm 3 mps 703 mmHg 51%
14:00 +26°C° 0.6 mm 3 mps 703 mmHg 60%
15:00 +25°C° 0.6 mm 3 mps 702 mmHg 69%
16:00 +24°C° 0.6 mm 3 mps 701 mmHg 78%
17:00 +21°C° 3.9 mm 2 mps 702 mmHg 85%
18:00 +19°C° 3.9 mm 2 mps 702 mmHg 91%
19:00 +18°C° 3.9 mm 1 mps 702 mmHg 98%
20:00 +18°C° 2.7 mm 1 mps 702 mmHg 98%
21:00 +18°C° 2.7 mm 1 mps 702 mmHg 98%
22:00 +16°C° 2.7 mm 1 mps 702 mmHg 98%
23:00 +16°C° 0.1 mm 1 mps 702 mmHg 98%

Day after tomorrow, 2 August, Monday

Time Temperature Precipitation Wind Pressure Humidity
00:00 +16°C° 0.1 mm 1 mps 702 mmHg 98%
01:00 +16°C° 0.1 mm 1 mps 702 mmHg 98%
02:00 +15°C° 0.4 mm 1 mps 702 mmHg 98%
03:00 +15°C° 0.4 mm 1 mps 703 mmHg 98%
04:00 +15°C° 0.4 mm 1 mps 703 mmHg 98%
05:00 +15°C° 0.8 mm 1 mps 703 mmHg 98%
06:00 +14°C° 0.8 mm 1 mps 704 mmHg 98%
07:00 +14°C° 0.8 mm 1 mps 704 mmHg 97%
08:00 +14°C° 0.2 mm 1 mps 705 mmHg 95%
09:00 +15°C° 0.2 mm 1 mps 705 mmHg 94%
10:00 +15°C° 0.2 mm 1 mps 705 mmHg 92%
11:00 +16°C° 0.1 mm 1 mps 706 mmHg 85%
12:00 +18°C° 0.1 mm 1 mps 706 mmHg 78%
13:00 +18°C° 0.1 mm 2 mps 706 mmHg 71%
14:00 +19°C° 0.3 mm 2 mps 706 mmHg 72%
15:00 +19°C° 0.3 mm 2 mps 706 mmHg 72%
16:00 +19°C° 0.3 mm 2 mps 706 mmHg 73%
17:00 +19°C° 0.3 mm 1 mps 706 mmHg 79%
18:00 +16°C° 0.3 mm 1 mps 706 mmHg 85%
19:00 +15°C° 0.3 mm 1 mps 706 mmHg 91%
20:00 +14°C° 0.1 mm 1 mps 707 mmHg 92%
21:00 +14°C° 0.1 mm 1 mps 707 mmHg 93%
22:00 +13°C° 0.1 mm 1 mps 707 mmHg 94%
23:00 +13°C° 0 mm 1 mps 707 mmHg 94%

3 August, Tuesday

Time Temperature Precipitation Wind Pressure Humidity
00:00 +13°C° 0 mm 1 mps 707 mmHg 94%
01:00 +12°C° 0 mm 1 mps 708 mmHg 94%
02:00 +12°C° 0 mm 1 mps 708 mmHg 94%
03:00 +12°C° 0 mm 1 mps 708 mmHg 94%
04:00 +12°C° 0 mm 1 mps 708 mmHg 94%
05:00 +13°C° 0 mm 1 mps 708 mmHg 91%
06:00 +14°C° 0 mm 0 mps 709 mmHg 88%
07:00 +15°C° 0 mm 0 mps 709 mmHg 85%
08:00 +19°C° 0 mm 1 mps 709 mmHg 75%
09:00 +21°C° 0 mm 1 mps 709 mmHg 65%
10:00 +22°C° 0 mm 1 mps 709 mmHg 55%
11:00 +23°C° 0.1 mm 1 mps 709 mmHg 52%
12:00 +24°C° 0.1 mm 2 mps 709 mmHg 50%
13:00 +24°C° 0.1 mm 2 mps 709 mmHg 48%
14:00 +23°C° 0.2 mm 1 mps 708 mmHg 54%
15:00 +23°C° 0.2 mm 1 mps 708 mmHg 61%
16:00 +22°C° 0.2 mm 1 mps 708 mmHg 68%
17:00 +21°C° 0.1 mm 1 mps 708 mmHg 72%
18:00 +20°C° 0.1 mm 1 mps 708 mmHg 76%
19:00 +18°C° 0.1 mm 1 mps 707 mmHg 81%
20:00 +18°C° 0 mm 1 mps 707 mmHg 82%
21:00 +16°C° 0 mm 1 mps 707 mmHg 83%
22:00 +15°C° 0 mm 1 mps 707 mmHg 84%
23:00 +15°C° 0.4 mm 1 mps 707 mmHg 87%

4 August, Wednesday

Time Temperature Precipitation Wind Pressure Humidity
00:00 +15°C° 0.4 mm 1 mps 707 mmHg 90%
01:00 +14°C° 0.4 mm 1 mps 707 mmHg 93%
02:00 +14°C° 0.9 mm 1 mps 706 mmHg 94%
03:00 +14°C° 0.9 mm 1 mps 706 mmHg 95%
04:00 +14°C° 0.9 mm 1 mps 706 mmHg 96%
05:00 +15°C° 0 mm 1 mps 706 mmHg 94%
06:00 +16°C° 0.1 mm 1 mps 706 mmHg 92%
07:00 +18°C° 0.1 mm 1 mps 706 mmHg 90%
08:00 +19°C° 0 mm 1 mps 706 mmHg 79%
09:00 +21°C° 0 mm 1 mps 706 mmHg 69%
10:00 +23°C° 0 mm 1 mps 706 mmHg 58%
11:00 +24°C° 0 mm 2 mps 706 mmHg 55%
12:00 +24°C° 0 mm 2 mps 706 mmHg 52%
13:00 +25°C° 0 mm 2 mps 706 mmHg 49%
14:00 +25°C° 0.1 mm 2 mps 706 mmHg 51%
15:00 +24°C° 0.1 mm 2 mps 706 mmHg 54%
16:00 +23°C° 0.1 mm 1 mps 706 mmHg 56%
17:00 +22°C° 0 mm 1 mps 705 mmHg 65%
18:00 +20°C° 0 mm 1 mps 705 mmHg 74%
19:00 +18°C° 0 mm 1 mps 705 mmHg 83%
20:00 +18°C° 0.1 mm 1 mps 705 mmHg 84%
21:00 +18°C° 0.1 mm 1 mps 705 mmHg 84%
22:00 +16°C° 0.1 mm 1 mps 705 mmHg 84%
23:00 +16°C° 0.1 mm 1 mps 704 mmHg 85%

5 August, Thursday

Time Temperature Precipitation Wind Pressure Humidity
00:00 +15°C° 0.1 mm 0 mps 704 mmHg 86%
01:00 +15°C° 0.1 mm 0 mps 703 mmHg 86%
02:00 +15°C° 0.3 mm 0 mps 703 mmHg 89%
03:00 +15°C° 0.3 mm 1 mps 703 mmHg 91%
04:00 +15°C° 0.3 mm 1 mps 703 mmHg 93%
05:00 +15°C° 0.3 mm 1 mps 703 mmHg 94%
06:00 +16°C° 0.3 mm 1 mps 702 mmHg 94%
07:00 +15°C° 0.3 mm 0 mps 702 mmHg 95%
08:00 +15°C° 0.9 mm 0 mps 702 mmHg 95%
09:00 +15°C° 0.9 mm 0 mps 702 mmHg 96%
10:00 +16°C° 0.9 mm 1 mps 702 mmHg 97%
11:00 +16°C° 1.2 mm 1 mps 702 mmHg 97%
12:00 +16°C° 1.2 mm 1 mps 702 mmHg 97%
13:00 +16°C° 1.2 mm 1 mps 702 mmHg 97%
14:00 +16°C° 0.5 mm 1 mps 702 mmHg 95%
15:00 +16°C° 0.5 mm 1 mps 702 mmHg 93%
16:00 +16°C° 0.5 mm 1 mps 703 mmHg 90%
17:00 +16°C° 0 mm 1 mps 702 mmHg 92%
18:00 +15°C° 0 mm 1 mps 702 mmHg 93%
19:00 +15°C° 0 mm 1 mps 702 mmHg 95%
20:00 +14°C° 0 mm 1 mps 702 mmHg 95%
21:00 +14°C° 0 mm 1 mps 702 mmHg 95%
22:00 +13°C° 0 mm 1 mps 702 mmHg 96%
23:00 +13°C° 0 mm 1 mps 702 mmHg 95%
Show more